This demonstration page uses our WeatherBlox Daily Observations layout. Learn more.

39.29038, -76.61219

Hourly Observations for October 27, 2020

Temp ( °F °C ) Dew Point ( °F °C ) Humidity (%) Winds ( mph kmh ) Pressure ( in mb ) Visibility ( mi km ) Precip ( " mm )
12:08 am 00:08 Mostly Cloudy 55 12.8 53 11.7 93 93 Calm 30.12 1020 10 16.0934 0 0
12:54 am 00:54 Mostly Cloudy 55 12.8 53 11.7 93 93 Calm 30.11 1020 10 16.0934 0 0
1:54 am 01:54 Cloudy 55 12.8 53 11.7 93 93 W 3 6 30.12 1020 10 16.0934 0 0
2:54 am 02:54 Mostly Cloudy 55 12.8 53 11.7 93 93 Calm 30.13 1020 10 16.0934 0 0
3:54 am 03:54 Mostly Cloudy 55 12.8 53 11.7 93 93 Calm 30.12 1020 10 16.0934 0 0
4:54 am 04:54 Mostly Cloudy 56 13.3 54 12.2 93 93 Calm 30.13 1020 10 16.0934 0 0
5:54 am 05:54 Cloudy 57 13.9 55 12.8 93 93 Calm 30.15 1021 10 16.0934 0 0
6:54 am 06:54 Cloudy 57 13.9 55 12.8 93 93 Calm 30.17 1022 10 16.0934 0 0
7:18 am 07:18 Cloudy 58 14.4 55 12.8 90 90 VRB 3 6 30.19 1022 10 16.0934 0 0
7:54 am 07:54 Cloudy 59 15 55 12.8 87 87 N 5 7 30.19 1022 10 16.0934 0 0
8:26 am 08:26 Cloudy 59 15 53 11.7 81 81 N 7 11 30.21 1023 10 16.0934 0 0
8:54 am 08:54 Cloudy 59 15 51 10.6 75 75 N 5 7 30.21 1023 10 16.0934 0 0
9:54 am 09:54 Cloudy 59 15 51 10.6 75 75 N 3 6 30.21 1023 10 16.0934 0 0
10:54 am 10:54 Cloudy 60 15.6 49 9.4 67 67 VRB 3 6 30.2 1023 10 16.0934 0 0
11:54 am 11:54 Cloudy 61 16.1 51 10.6 70 70 Calm 30.21 1023 10 16.0934 0.001 0.001
12:54 pm 12:54 Mostly Cloudy 62 16.7 50 10 65 65 VRB 3 6 30.19 1022 10 16.0934 0 0
1:54 pm 13:54 Mostly Cloudy 62 16.7 49 9.4 62 62 Calm 30.17 1022 10 16.0934 0 0
2:54 pm 14:54 Cloudy 63 17.2 50 10 63 63 Calm 30.15 1021 10 16.0934 0 0
3:54 pm 15:54 Cloudy 63 17.2 50 10 63 63 VRB 3 6 30.12 1020 10 16.0934 0 0
4:54 pm 16:54 Cloudy 63 17.2 51 10.6 65 65 SSE 5 7 30.11 1020 10 16.0934 0 0
5:54 pm 17:54 Mostly Cloudy 63 17.2 51 10.6 65 65 Calm 30.14 1021 10 16.0934 0 0
6:54 pm 18:54 Cloudy 61 16.1 52 11.1 72 72 SE 3 6 30.13 1020 10 16.0934 0 0
7:54 pm 19:54 Cloudy 61 16.1 52 11.1 72 72 SSE 6 9 30.13 1020 10 16.0934 0 0
8:54 pm 20:54 Cloudy 60 15.6 52 11.1 75 75 Calm 30.14 1021 10 16.0934 0 0
9:54 pm 21:54 Cloudy 61 16.1 52 11.1 72 72 Calm 30.15 1021 10 16.0934 0 0
10:04 pm 22:04 Cloudy 61 16.1 52 11.1 72 72 Calm 30.15 1021 10 16.0934 0 0
10:54 pm 22:54 Cloudy 60 15.6 52 11.1 75 75 Calm 30.15 1021 7 11.26538 0 0
11:24 pm 23:24 Cloudy 60 15.6 53 11.7 78 78 SE 5 7 30.15 1021 9 14.48406 0 0
11:54 pm 23:54 Cloudy 60 15.6 54 12.2 80 80 Calm 30.14 1021 9 14.48406 0 0

Powered by AerisWeather